N321FK KBTV-KBTV

Flight info

Callsign N321FK
Flight time 0h 20m
Altitude 7000
Route BTV
Aircraft SR22/L-VGD/C

Departure

Time 2026-05-05 21:34
Airport Patrick Leahy Burlington International Airport (KBTV)

Arrival

Time 2026-05-05 21:54
Airport Patrick Leahy Burlington International Airport (KBTV)
Time Latitude Longitude Altitude Speed Heading
2026-05-05 21:24 44.46320 -73.15273 321 ft 0 kts 350°
2026-05-05 21:31 44.46336 -73.15263 323 ft 13 kts 47°
2026-05-05 21:31 44.46476 -73.15272 330 ft 25 kts 348°
2026-05-05 21:32 44.46591 -73.15196 330 ft 23 kts 91°
2026-05-05 21:32 44.46600 -73.14894 329 ft 37 kts 90°
2026-05-05 21:32 44.46597 -73.14523 327 ft 32 kts 114°
2026-05-05 21:32 44.46499 -73.14330 326 ft 17 kts 86°
2026-05-05 21:33 44.46536 -73.14252 326 ft 4 kts 15°
2026-05-05 21:33 44.46549 -73.14235 326 ft 11 kts 36°
2026-05-05 21:33 44.46662 -73.14319 327 ft 39 kts 310°
2026-05-05 21:33 44.46972 -73.14817 330 ft 93 kts 309°
2026-05-05 21:34 44.47461 -73.15548 539 ft 106 kts 310°
2026-05-05 21:34 44.48070 -73.16100 896 ft 104 kts 332°
2026-05-05 21:34 44.48722 -73.16358 1282 ft 94 kts 334°
2026-05-05 21:34 44.49317 -73.16531 1681 ft 83 kts 334°
2026-05-05 21:35 44.49841 -73.16605 2040 ft 72 kts 337°
2026-05-05 21:35 44.50415 -73.16438 2239 ft 88 kts 350°
2026-05-05 21:35 44.51063 -73.16327 2432 ft 97 kts 338°
2026-05-05 21:35 44.51545 -73.16663 2755 ft 70 kts 286°
2026-05-05 21:36 44.51785 -73.17258 3017 ft 79 kts 296°
2026-05-05 21:36 44.52378 -73.17587 3283 ft 110 kts 342°
2026-05-05 21:36 44.53188 -73.17270 3554 ft 129 kts 12°
2026-05-05 21:36 44.54016 -73.16684 3804 ft 140 kts 26°
2026-05-05 21:37 44.54609 -73.15560 4051 ft 150 kts 73°
2026-05-05 21:37 44.54651 -73.14162 4303 ft 142 kts 117°
2026-05-05 21:37 44.54146 -73.13110 4556 ft 120 kts 164°
2026-05-05 21:37 44.53435 -73.12568 4814 ft 117 kts 171°
2026-05-05 21:38 44.52707 -73.11966 5073 ft 126 kts 165°
2026-05-05 21:38 44.51968 -73.11239 5330 ft 134 kts 161°
2026-05-05 21:38 44.51213 -73.10416 5579 ft 141 kts 158°
2026-05-05 21:38 44.50444 -73.09536 5830 ft 145 kts 157°
2026-05-05 21:39 44.49665 -73.08616 6079 ft 148 kts 156°
2026-05-05 21:39 44.48875 -73.07680 6324 ft 150 kts 156°
2026-05-05 21:39 44.48077 -73.06732 6576 ft 151 kts 156°
2026-05-05 21:39 44.47267 -73.05768 6826 ft 152 kts 156°
2026-05-05 21:40 44.46463 -73.04814 6992 ft 158 kts 156°
2026-05-05 21:40 44.45584 -73.03781 7004 ft 166 kts 155°
2026-05-05 21:40 44.44694 -73.02722 7005 ft 173 kts 155°
2026-05-05 21:40 44.43756 -73.01604 7004 ft 178 kts 154°
2026-05-05 21:41 44.42802 -73.00471 7005 ft 181 kts 153°
2026-05-05 21:41 44.41848 -72.99335 7005 ft 183 kts 154°
2026-05-05 21:41 44.40873 -72.98170 7009 ft 183 kts 154°
2026-05-05 21:41 44.39892 -72.97009 7007 ft 184 kts 154°
2026-05-05 21:42 44.38927 -72.95863 7008 ft 184 kts 153°
2026-05-05 21:42 44.37939 -72.94694 7006 ft 185 kts 153°
2026-05-05 21:42 44.36969 -72.93543 7009 ft 185 kts 154°
2026-05-05 21:42 44.35978 -72.92369 7008 ft 186 kts 154°
2026-05-05 21:43 44.34998 -72.91211 7008 ft 185 kts 154°
2026-05-05 21:43 44.34011 -72.90044 7010 ft 185 kts 153°
2026-05-05 21:43 44.33033 -72.88887 7016 ft 185 kts 154°
2026-05-05 21:43 44.32048 -72.87721 7017 ft 186 kts 153°
2026-05-05 21:44 44.31065 -72.86561 7021 ft 185 kts 154°
2026-05-05 21:44 44.30078 -72.85395 7027 ft 184 kts 154°
2026-05-05 21:44 44.29105 -72.84248 7028 ft 185 kts 153°
2026-05-05 21:44 44.28122 -72.83088 7029 ft 185 kts 154°
2026-05-05 21:45 44.27135 -72.81924 7028 ft 185 kts 154°
2026-05-05 21:45 44.26084 -72.81138 7024 ft 159 kts 188°
2026-05-05 21:45 44.25180 -72.81640 7035 ft 136 kts 234°
2026-05-05 21:45 44.25046 -72.82903 7037 ft 147 kts 279°
2026-05-05 21:46 44.25830 -72.83974 6947 ft 178 kts 320°
2026-05-05 21:46 44.26998 -72.84599 6610 ft 183 kts 327°
2026-05-05 21:46 44.28136 -72.85325 6233 ft 175 kts 315°
2026-05-05 21:46 44.29075 -72.86333 5858 ft 170 kts 306°
2026-05-05 21:47 44.29910 -72.87470 5535 ft 165 kts 301°
2026-05-05 21:47 44.30673 -72.88616 5237 ft 162 kts 301°
2026-05-05 21:47 44.31425 -72.89790 5019 ft 159 kts 300°
2026-05-05 21:47 44.32133 -72.90915 4763 ft 156 kts 299°
2026-05-05 21:48 44.32835 -72.92034 4579 ft 150 kts 298°
2026-05-05 21:48 44.33511 -72.93110 4397 ft 145 kts 298°
2026-05-05 21:48 44.34173 -72.94173 4240 ft 142 kts 298°
2026-05-05 21:48 44.34809 -72.95198 4080 ft 140 kts 298°
2026-05-05 21:49 44.35449 -72.96231 3887 ft 140 kts 298°
2026-05-05 21:49 44.36072 -72.97280 3690 ft 139 kts 297°
2026-05-05 21:49 44.36709 -72.98325 3495 ft 140 kts 299°
2026-05-05 21:49 44.37354 -72.99372 3307 ft 141 kts 300°
2026-05-05 21:50 44.38014 -73.00432 3115 ft 142 kts 301°
2026-05-05 21:50 44.38670 -73.01481 2876 ft 143 kts 301°
2026-05-05 21:50 44.39324 -73.02536 2672 ft 143 kts 302°
2026-05-05 21:50 44.39983 -73.03590 2441 ft 143 kts 303°
2026-05-05 21:51 44.40641 -73.04645 2237 ft 144 kts 303°
2026-05-05 21:51 44.41297 -73.05698 2067 ft 145 kts 303°
2026-05-05 21:51 44.41973 -73.06781 1851 ft 147 kts 304°
2026-05-05 21:51 44.42646 -73.07867 1625 ft 149 kts 304°
2026-05-05 21:52 44.43926 -73.09918 1202 ft 124 kts 305°
2026-05-05 21:52 44.44466 -73.10788 1033 ft 112 kts 305°
2026-05-05 21:52 44.44946 -73.11557 899 ft 88 kts 305°
2026-05-05 21:53 44.45300 -73.12126 814 ft 75 kts 303°
2026-05-05 21:53 44.45663 -73.12721 697 ft 80 kts 304°
2026-05-05 21:53 44.46046 -73.13335 573 ft 84 kts 306°
2026-05-05 21:53 44.46433 -73.13957 445 ft 83 kts 307°
2026-05-05 21:54 44.46811 -73.14568 342 ft 81 kts 307°
2026-05-05 21:54 44.47152 -73.15133 329 ft 63 kts 310°
2026-05-05 21:54 44.47261 -73.15380 326 ft 11 kts 239°
2026-05-05 21:54 44.47199 -73.15395 327 ft 6 kts 175°
2026-05-05 21:55 44.47183 -73.15389 327 ft 9 kts 178°
2026-05-05 21:55 44.47051 -73.15363 329 ft 18 kts 172°
2026-05-05 21:55 44.46966 -73.15344 329 ft 6 kts 164°
2026-05-05 21:55 44.46891 -73.15327 330 ft 14 kts 172°
2026-05-05 21:56 44.46759 -73.15303 330 ft 18 kts 172°
2026-05-05 21:56 44.46614 -73.15272 330 ft 29 kts 179°
2026-05-05 21:56 44.46444 -73.15254 329 ft 18 kts 171°
2026-05-05 21:56 44.46330 -73.15238 320 ft 7 kts 173°
2026-05-05 21:57 44.46328 -73.15238 320 ft 0 kts 173°